Location: Kawakawa
(35.3830°S, 174.0670°E)
Time: 16:09:44
(UTC+12:00)

ISS - Pass Details

Date: 05 July 2022
Orbit: 412 x 420 km, 51.6° (Epoch: 15 August)

Event Time Altitude Azimuth Distance (km) Brightness Sun altitude
Rises 18:50:51 0° 220° (SW) 2,383 0.4 -17.3°
Reaches altitude 10° 18:53:08 10° 209° (SSW) 1,512 -0.8 -17.8°
Enters shadow 18:55:14 26° 177° (S) 881 -2.3 -18.2°
